Regional Weather Roundup
Issued by NWS

Home | Current Version | Previous Version | Text Only | Print | Product List | Glossary Off
Versions: 1 2 3 4 5 6 7 8 9 10 11 12 13 14 15 16 17 18 19 20 21 22 23 24 25 26 27 28 29 30 31 32 33 34 35 36 37 38 39 40 41 42 43 44 45 46 47 48 49 50

000
ASUS43 KLMK 301502
RWRKY
KENTUCKY REGIONAL WEATHER ROUNDUP
NATIONAL WEATHER SERVICE LOUISVILLE KY
1100 AM EDT SUN APR 30 2017

NOTE "FAIR" INDICATES FEW OR NO CLOUDS BELOW 12,000 FEET
WITH NO SIGNIFICANT WEATHER AND/OR OBSTRUCTIONS TO VISIBILITY.

KYZ001>023-026-027-061>063-070>075-301600-
WESTERN AND SOUTH CENTRAL KENTUCKY

CITY           SKY/WX    TMP DP  RH WIND       PRES   REMARKS
PADUCAH        RAIN      65  62  90 NE6       29.81S FOG
HENDERSON        N/A    N/A N/A N/A MISG        N/A
OWENSBORO      RAIN      67  64  90 SE8       29.89S FOG
HOPKINSVILLE   CLOUDY    74  67  76 S15G23    29.87F
BOWLING GREEN  CLOUDY    76  68  76 S14G22    29.94F
GLASGOW        NOT AVBL
$$

KYZ024-025-028>034-038-045-046-053-301600-
NORTH CENTRAL KENTUCKY

CITY           SKY/WX    TMP DP  RH WIND       PRES   REMARKS
LOUISVILLE/SDF CLOUDY    73  67  81 S7        29.93S
LOUISVILLE/LOU CLOUDY    72  66  81 S7        29.94R
FORT KNOX      CLOUDY    70  67  91 S5        29.92F
$$

KYZ035>037-039>044-047>052-055>060-089>105-301600-
NORTHEAST KENTUCKY

CITY           SKY/WX    TMP DP  RH WIND       PRES   REMARKS
LEXINGTON      CLOUDY    76  64  66 S16       29.99R
COVINGTON      CLOUDY    76  65  68 S16G36    29.92S
FRANKFORT      CLOUDY    79  63  57 S16G23    29.96R
$$

KYZ054-064>069-076>088-106>120-301600-
SOUTHEAST KENTUCKY

CITY           SKY/WX    TMP DP  RH WIND       PRES   REMARKS
JACKSON        CLOUDY    77  63  61 VRB5      30.06R
LONDON         CLOUDY    79  62  56 S13       30.04S
SOMERSET       CLOUDY    77  61  57 S16G26    30.03S
MIDDLESBORO    CLOUDY    79  63  58 SE3       30.08R
MONTICELLO     MOSUNNY   79  66  64 S14G28    30.02F
$$





USA.gov is the U.S. government's official web portal to all federal, state and local government web resources and services.